This demonstration page uses our WeatherBlox Daily Observations layout. Learn more.

Left ArrowRight Arrow

39.01783, -85.05884

Hourly Observations for March 1, 2016

Temp ( °F °C ) Dew Point ( °F °C ) Humidity (%) Winds ( mph kmh ) Pressure ( in mb ) Visibility ( mi km ) Precip ( " mm )
12:52 am 00:52 Clear 41 5 31 -0.6 67 67 SSE 5 7 30.00 1016 10 16 0.00 0.00
1:52 am 01:52 Clear 40 4.4 31 -0.6 70 70 SE 5 7 29.99 1016 10 16 0.00 0.00
2:52 am 02:52 Mostly Clear 40 4.4 31 -0.6 70 70 SSE 3 6 29.96 1015 10 16 0.00 0.00
3:52 am 03:52 Clear 36 2.2 30 -1.1 79 79 SSE 7 11 29.93 1013 10 16 0.00 0.00
4:52 am 04:52 Clear 38 3.3 31 -0.6 76 76 S 7 11 29.93 1014 10 16 0.00 0.00
5:52 am 05:52 Clear 37 2.8 30 -1.1 76 76 S 9 15 29.92 1013 10 16 0.00 0.00
6:52 am 06:52 Partly Cloudy 37 2.8 30 -1.1 76 76 S 9 15 29.90 1013 10 16 0.00 0.00
7:52 am 07:52 Mostly Cloudy 39 3.9 31 -0.6 73 73 S 9 15 29.88 1012 10 16 0.00 0.00
8:52 am 08:52 Cloudy 47 8.3 33 0.6 59 59 S 10 17 29.85 1011 10 16 0.00 0.00
9:52 am 09:52 Cloudy with Light Rain 51 10.6 35 1.7 54 54 S 10 17 29.81 1009 7 11 0.00 0.03
10:52 am 10:52 Cloudy with Light Rain 51 10.6 41 5 69 69 S 14 22 29.76 1008 10 16 0.01 0.25
11:23 am 11:23 Cloudy 50 10 45 7 82 82 S 12 19 29.74 1007 9 14 0.00 0.03
11:35 am 11:35 Cloudy 52 11 45 7 77 77 S 13 20 29.74 1007 10 16 0.00 0.03
11:52 am 11:52 Cloudy 53 11.7 44 6.7 72 72 S 12 19 29.72 1006 10 16 0.00 0.03
12:52 pm 12:52 Cloudy with Rain 49 9.4 45 7.2 86 86 WNW 10 17 29.70 1006 3 5 0.03 0.76
1:17 pm 13:17 Cloudy with Heavy Rain 48 9 46 8 94 94 S 6 9 29.71 1006 3 4 0.07 1.78
1:52 pm 13:52 Cloudy with Rain 49 9.4 47 8.3 93 93 SSW 8 13 29.64 1004 3 4 0.19 4.83
2:36 pm 14:36 Cloudy with Light Rain 50 10 48 9 94 94 SW 9 15 29.62 1003 3 4 0.04 1.02
2:52 pm 14:52 Cloudy with Light Rain 50 10 49 9.4 96 96 SSW 12 19 29.61 1003 3 4 0.07 1.78
3:25 pm 15:25 Cloudy with Light Rain 52 11 50 10 94 94 SW 10 17 29.59 1002 3 4 0.02 0.51
3:52 pm 15:52 Cloudy with Mist and Fog 52 11.1 50 10 93 93 SW 12 19 29.59 1002 4 6 0.02 0.51
4:07 pm 16:07 Cloudy with Light Rain 52 11 50 10 94 94 SW 10 17 29.59 1002 2 3 0.00 0.03
4:24 pm 16:24 Cloudy with Light Rain 52 11 48 9 88 88 W 24 39 29.59 1002 2 3 0.00 0.00
4:35 pm 16:35 Cloudy with Light Rain 52 11 46 8 82 82 W 24 39 29.59 1002 9 14 0.03 0.76
4:52 pm 16:52 Cloudy 50 10 46 7.8 86 86 W 23 37 29.61 1003 10 16 0.03 0.76
5:35 pm 17:35 Cloudy with Light Rain 48 9 45 7 87 87 W 24 39 29.62 1003 6 10 0.00 0.03
5:52 pm 17:52 Cloudy with Light Rain 47 8.3 42 5.6 83 83 W 31 50 29.65 1004 7 11 0.02 0.51
6:18 pm 18:18 Cloudy 43 6 39 4 87 87 W 32 52 29.68 1005 8 13 0.00 0.00
6:52 pm 18:52 Cloudy 38 3.3 34 1.1 86 86 WNW 29 46 29.75 1007 10 16 0.00 0.03
7:27 pm 19:27 Cloudy with Drizzle 36 2 34 1 93 93 W 32 52 29.80 1009 7 11 0.00 0.03
7:52 pm 19:52 Cloudy 35 1.7 30 -1.1 82 82 WNW 33 54 29.82 1010 10 16 0.00 0.00
8:04 pm 20:04 Cloudy 34 1 28 -2 81 81 W 31 50 29.85 1011 10 16 0.00 0.00
8:27 pm 20:27 Cloudy with Drizzle 34 1 30 -1 87 87 WNW 20 31 29.88 1012 9 14 0.00 0.03
8:52 pm 20:52 Cloudy 32 0 27 -2.8 82 82 WNW 26 43 29.88 1012 10 16 0.00 0.03
9:25 pm 21:25 Cloudy 30 -1 27 -3 86 86 WNW 24 39 29.97 1015 10 16 0.00 0.00
9:52 pm 21:52 Cloudy 31 -0.6 23 -5 72 72 NW 24 39 29.92 1013 10 16 0.00 0.00
10:52 pm 22:52 Cloudy 30 -1.1 22 -5.6 72 72 WNW 23 37 29.96 1015 10 16 0.00 0.00
11:52 pm 23:52 Cloudy 30 -1.1 21 -6.1 69 69 NW 15 24 29.98 1015 10 16 0.00 0.00

Powered by AerisWeather